{"data":{"norad_id":63561,"intl_designator":"2025-075P","name":"STARLINK-32953","alt_names":[],"object_type":"PAYLOAD","status":"ACTIVE","operator":null,"country":"US","launch_date":"2025-04-13","launch_site_code":"AFETR","launch_vehicle":null,"mission":null,"orbit_class":"UNKNOWN","rcs_meters":null,"size_class":null,"mass_kg":null,"dimensions":null,"purposes":["comms"],"wikipedia_slug":null,"has_3d_model":false,"image_url":null,"decayed_at":null,"tle_current":{"epoch":"2026-05-25T04:20:00.330432Z","epoch_age_seconds":52814,"freshness":"FRESH","line1":"1 63561U 25075P   26145.18055938  .00006919  00000+0  26086-3 0  9996","line2":"2 63561  42.9975 198.8263 0001338 266.5995  93.4704 15.27561246 63626","mean_motion":15.27561246,"eccentricity":0.0001338,"inclination_deg":42.9975,"raan_deg":198.8263,"arg_perigee_deg":266.5995,"mean_anomaly_deg":93.4704,"bstar":0.00026086,"rev_number":6362,"period_min":94.267906034584,"perigee_km":482.18721862347,"apogee_km":484.02328705033,"semimajor_km":6861.2422528369,"source":"CELESTRAK","updated_at":"2026-05-25T13:38:20.043367Z"}}}